SV2RIM-2 Weather Reports


time (UTC)temp
C
wind
direction
speed
KPH
gust
KPH
rain 1hr
cm
rain 24hr
cm
rain mn
cm
humidity
%
barometer
mb
20260507114018 19 214 1.6 6.4 0.00 0.10 0.10 70 1018.2
20260507113019 18 323 4.8 11.3 0.00 0.10 0.10 70 1018.0
20260507112019 18 322 4.8 9.7 0.00 0.10 0.10 70 1018.1
20260507111019 17 338 8.0 12.9 0.00 0.10 0.10 72 1018.4
20260507110018 16 317 8.0 14.5 0.03 0.10 0.10 72 1018.4
20260507105018 16 332 8.0 14.5 0.03 0.10 0.10 73 1018.4
20260507104018 15 301 9.7 19.3 0.05 0.10 0.10 73 1018.4
20260507103019 15 313 11.3 19.3 0.05 0.10 0.10 73 1018.4
20260507102019 15 303 11.3 16.1 0.05 0.10 0.10 73 1018.6
20260507101019 15 266 9.7 17.7 0.05 0.10 0.10 72 1018.7
20260507100019 15 272 6.4 14.5 0.05 0.08 0.08 72 1018.6
20260507095019 15 305 3.2 11.3 0.05 0.08 0.08 70 1018.6
20260507094018 15 318 1.6 9.7 0.03 0.05 0.05 70 1018.5
20260507093019 15 279 4.8 9.7 0.05 0.05 0.05 71 1018.4
20260507092018 15 309 11.3 20.9 0.05 0.05 0.05 71 1018.2
20260507091019 15 305 11.3 16.1 0.05 0.05 0.05 70 1018.1
20260507090019 15 314 11.3 19.3 0.03 0.03 0.03 69 1018.1
20260507085019 15 282 9.7 14.5 0.03 0.03 0.03 67 1018.1
20260507084019 15 285 8.0 17.7 0.03 0.03 0.03 67 1018.0
20260507083019 16 269 8.0 19.3 0.00 0.00 0.00 66 1017.8
20260507082019 17 263 4.8 11.3 0.00 0.00 0.00 63 1017.7
20260507081019 18 239 3.2 4.8 0.00 0.00 0.00 62 1017.5
20260507080019 20 200 3.2 6.4 0.00 0.00 0.00 57 1017.3
20260507075019 19 302 1.6 6.4 0.00 0.00 0.00 58 1017.1
20260507074019 19 338 6.4 12.9 0.00 0.00 0.00 58 1017.0
20260507073019 20 312 3.2 9.7 0.00 0.00 0.00 56 1016.9
20260507072018 19 351 4.8 9.7 0.00 0.00 0.00 57 1016.9
20260507071019 19 300 1.6 4.8 0.00 0.00 0.00 57 1016.9
20260507070019 18 277 3.2 4.8 0.00 0.00 0.00 60 1016.8
20260507065018 17 347 4.8 8.0 0.00 0.00 0.00 60 1016.7
20260507064019 17 332 1.6 6.4 0.00 0.00 0.00 59 1016.7
20260507063018 16 250 0.0 1.6 0.00 0.00 0.00 60 1016.7
20260507062019 16 321 3.2 4.8 0.00 0.00 0.00 61 1016.5
20260507061018 16 310 4.8 9.7 0.00 0.00 0.00 62 1016.5
20260507060018 16 305 4.8 8.0 0.00 0.00 0.00 61 1016.6
20260507055019 16 334 4.8 8.0 0.00 0.00 0.00 60 1016.7
20260507054018 16 320 4.8 8.0 0.00 0.00 0.00 60 1016.9
20260507053018 16 338 4.8 8.0 0.00 0.00 0.00 58 1016.6
20260507052019 16 323 4.8 9.7 0.00 0.00 0.00 58 1016.5
20260507051019 16 309 3.2 8.0 0.00 0.00 0.00 58 1016.4
20260507050019 15 302 4.8 8.0 0.00 0.00 0.00 59 1016.3
20260507045019 14 323 4.8 9.7 0.00 0.00 0.00 61 1016.2
20260507044019 13 298 6.4 11.3 0.00 0.00 0.00 62 1016.1
20260507043018 13 323 6.4 11.3 0.00 0.00 0.00 61 1016.0
20260507042019 13 332 8.0 14.5 0.00 0.00 0.00 62 1015.9
20260507041019 13 312 4.8 8.0 0.00 0.00 0.00 61 1015.8
20260507040019 13 320 8.0 14.5 0.00 0.00 0.00 62 1015.8
20260507035018 13 330 6.4 11.3 0.00 0.00 0.00 62 1015.7
20260507034019 13 331 8.0 14.5 0.00 0.00 0.00 62 1015.7
20260507033018 13 355 8.0 14.5 0.00 0.00 0.00 62 1015.7
20260507032019 12 354 8.0 14.5 0.00 0.00 0.00 62 1015.6
20260507031019 12 314 6.4 11.3 0.00 0.00 0.00 62 1015.6
20260507030019 12 345 8.0 14.5 0.00 0.00 0.00 62 1015.5
20260507025018 12 349 9.7 16.1 0.00 0.00 0.00 62 1015.6
20260507024018 12 4 9.7 16.1 0.00 0.00 0.00 62 1015.4
20260507023018 12 330 9.7 17.7 0.00 0.00 0.00 61 1015.3
20260507022019 12 345 8.0 14.5 0.00 0.00 0.00 61 1015.4
20260507021019 12 345 8.0 12.9 0.00 0.00 0.00 60 1015.3
20260507020019 13 331 8.0 11.3 0.00 0.00 0.00 60 1015.3
20260507015019 12 347 9.7 16.1 0.00 0.00 0.00 60 1015.2
20260507014019 12 341 9.7 14.5 0.00 0.00 0.00 59 1015.3
20260507013018 12 345 9.7 16.1 0.00 0.00 0.00 59 1015.2
20260507012019 12 357 8.0 12.9 0.00 0.00 0.00 59 1015.2
20260507011019 13 338 8.0 12.9 0.00 0.00 0.00 59 1015.1
20260507010018 12 330 8.0 12.9 0.00 0.00 0.00 59 1015.1
20260507005019 12 335 8.0 14.5 0.00 0.00 0.00 59 1015.1
20260507004018 12 338 8.0 12.9 0.00 0.00 0.00 58 1015.1
20260507003019 12 314 6.4 14.5 0.00 0.00 0.00 58 1015.0
20260507002019 12 322 8.0 12.9 0.00 0.00 0.00 59 1015.1
20260507001019 12 319 8.0 14.5 0.00 0.00 0.00 59 1015.2
20260507000018 12 312 6.4 12.9 0.00 0.00 0.00 58 1015.1
20260506235018 12 305 6.4 9.7 0.00 0.00 0.00 58 1015.1
20260506234018 12 320 8.0 11.3 0.00 0.00 0.00 58 1015.1
20260506233019 12 308 8.0 14.5 0.00 0.00 0.00 57 1015.1
20260506232019 12 335 6.4 11.3 0.00 0.00 0.00 57 1015.2
20260506231019 12 330 6.4 12.9 0.00 0.00 0.00 56 1015.2
20260506230018 12 333 8.0 12.9 0.00 0.00 0.00 56 1015.3
20260506225019 13 311 6.4 11.3 0.00 0.00 0.00 55 1015.4
20260506224018 13 325 8.0 17.7 0.00 0.00 0.00 55 1015.4
20260506223018 13 335 8.0 14.5 0.00 0.00 0.00 55 1015.4
20260506222018 13 345 9.7 14.5 0.00 0.00 0.00 55 1015.4
20260506221019 13 336 8.0 16.1 0.00 0.00 0.00 54 1015.2
20260506220018 13 319 8.0 11.3 0.00 0.00 0.00 54 1015.3
20260506215018 14 331 4.8 8.0 0.00 0.00 0.00 52 1015.3
20260506214018 14 332 6.4 11.3 0.00 0.00 0.00 53 1015.4
20260506213018 14 348 6.4 11.3 0.00 0.00 0.00 52 1015.3
20260506212019 15 304 4.8 9.7 0.00 0.00 0.00 52 1015.3
20260506211018 15 310 4.8 9.7 0.00 0.00 0.00 51 1015.3
20260506210018 15 329 4.8 11.3 0.00 0.00 0.00 50 1015.3
20260506205018 15 345 4.8 6.4 0.00 0.00 0.00 50 1015.2
20260506204019 15 332 4.8 9.7 0.00 0.00 0.00 49 1015.2
20260506203018 16 350 6.4 9.7 0.00 0.00 0.00 49 1015.1
20260506202019 16 340 6.4 9.7 0.00 0.00 0.00 48 1015.2
20260506201018 16 334 6.4 9.7 0.00 0.00 0.00 47 1015.3
20260506200019 16 354 8.0 12.9 0.00 0.00 0.00 48 1015.2
20260506195019 16 342 6.4 12.9 0.00 0.00 0.00 47 1015.1
20260506194019 16 323 4.8 8.0 0.00 0.00 0.00 46 1014.9
20260506193019 16 325 4.8 9.7 0.00 0.00 0.00 47 1014.9
20260506192019 17 336 4.8 11.3 0.00 0.00 0.00 45 1014.8
20260506191019 17 266 3.2 8.0 0.00 0.00 0.00 45 1014.6
20260506190019 17 334 4.8 9.7 0.00 0.00 0.00 44 1014.6
20260506185018 17 314 1.6 4.8 0.00 0.00 0.00 43 1014.5
20260506184019 18 257 1.6 3.2 0.00 0.00 0.00 42 1014.3
20260506183018 18 322 3.2 6.4 0.00 0.00 0.00 41 1014.3
20260506182018 18 238 0.0 1.6 0.00 0.00 0.00 39 1014.1
20260506181019 19 261 0.0 1.6 0.00 0.00 0.00 39 1014.1
20260506180019 19 232 1.6 3.2 0.00 0.00 0.00 38 1014.0
20260506175019 20 251 1.6 1.6 0.00 0.00 0.00 38 1013.9
20260506174018 20 257 1.6 3.2 0.00 0.00 0.00 37 1013.8
20260506173019 20 230 0.0 1.6 0.00 0.00 0.00 37 1013.8
20260506172018 21 262 1.6 1.6 0.00 0.00 0.00 36 1013.6
20260506171018 21 281 1.6 3.2 0.00 0.00 0.00 36 1013.5
20260506170019 21 243 1.6 3.2 0.00 0.00 0.00 35 1013.4
20260506165019 22 267 1.6 3.2 0.00 0.00 0.00 35 1013.4
20260506164018 22 271 1.6 4.8 0.00 0.00 0.00 34 1013.5
20260506163019 22 262 1.6 4.8 0.00 0.00 0.00 34 1013.4
20260506162019 23 242 1.6 4.8 0.00 0.00 0.00 34 1013.4
20260506161018 23 264 1.6 3.2 0.00 0.00 0.00 34 1013.4
20260506160019 25 284 1.6 6.4 0.00 0.00 0.00 33 1013.3
20260506155018 27 232 1.6 4.8 0.00 0.00 0.00 32 1013.4
20260506154019 28 300 3.2 8.0 0.00 0.00 0.00 31 1013.5
20260506153019 30 257 3.2 4.8 0.00 0.00 0.00 29 1013.6
20260506152018 28 216 1.6 4.8 0.00 0.00 0.00 30 1013.5
20260506151019 28 229 3.2 4.8 0.00 0.00 0.00 30 1013.5
20260506150019 27 173 3.2 4.8 0.00 0.00 0.00 30 1013.6
20260506145019 26 249 1.6 4.8 0.00 0.00 0.00 32 1013.5
20260506144018 26 206 3.2 4.8 0.00 0.00 0.00 33 1013.5
20260506143019 26 194 3.2 6.4 0.00 0.00 0.00 35 1013.4
20260506142019 27 200 4.8 9.7 0.00 0.00 0.00 36 1013.5
20260506141019 30 208 4.8 11.3 0.00 0.00 0.00 32 1013.5
20260506140019 28 200 3.2 8.0 0.00 0.00 0.00 35 1013.5
20260506135018 30 193 4.8 9.7 0.00 0.00 0.00 34 1013.5
20260506134019 28 190 3.2 9.7 0.00 0.00 0.00 36 1013.6
20260506133019 28 196 4.8 9.7 0.00 0.00 0.00 38 1013.7
20260506132019 30 188 3.2 6.4 0.00 0.00 0.00 35 1013.8
20260506131019 28 188 6.4 9.7 0.00 0.00 0.00 38 1013.9
20260506130018 28 200 3.2 9.7 0.00 0.00 0.00 37 1014.0
20260506125019 28 198 4.8 9.7 0.00 0.00 0.00 37 1014.1
20260506124019 28 193 3.2 8.0 0.00 0.00 0.00 38 1014.2
20260506123019 28 189 4.8 9.7 0.00 0.00 0.00 38 1014.2
20260506122019 28 331 3.2 8.0 0.00 0.00 0.00 38 1014.3
20260506121019 27 196 4.8 9.7 0.00 0.00 0.00 40 1014.5
20260506120019 28 198 3.2 9.7 0.00 0.00 0.00 38 1014.6
20260506115019 27 210 3.2 4.8 0.00 0.00 0.00 39 1014.7